Regional Weather Roundup
Issued by NWS

Home | Current Version | Previous Version | Graphics & Text | Print | Product List | Glossary On
Versions: 1 2 3 4 5 6 7 8 9 10 11 12 13 14 15 16 17 18 19 20 21 22 23 24 25 26 27 28 29 30 31 32 33 34 35 36 37 38 39 40 41 42 43 44 45 46 47 48 49 50
000
ASUS43 KMKX 300600
RWRWI

WISCONSIN REGIONAL WEATHER ROUNDUP
NATIONAL WEATHER SERVICE MILWAUKEE/SULLIVAN WI
100 AM CDT MON MAY 30 2016

NOTE: "FAIR" INDICATES FEW OR NO CLOUDS BELOW 12,000 FEET WITH NO
SIGNIFICANT WEATHER AND/OR OBSTRUCTIONS TO VISIBILITY.

WIZ001-002-006>008-014>016-023>028-300700-
NORTHWEST WISCONSIN

CITY           SKY/WX    TMP DP  RH WIND       PRES   REMARKS
SUPERIOR ARPT  CLEAR     52  51  96 SW5       29.94R
ASHLAND        CLEAR     53  51  93 SW6       29.93S
6HR MIN TEMP:  53; 6HR MAX TEMP:  70;

HAYWARD        CLEAR     51  49  92 S3        29.97S
6HR MIN TEMP:  51; 6HR MAX TEMP:  72;

SIREN          CLEAR     55  54  97 CALM      29.98S
CUMBERLAND     PTCLDY    55  54  94 CALM      29.99R
RICE LAKE      PTCLDY    59  57  92 CALM      30.00R
CHETEK         MOCLDY    58  58 100 SW3       29.99S
LADYSMITH      PTCLDY    56  55  95 SW3       29.99S
EAU CLAIRE     NOT AVBL
MENOMONIE      PTCLDY    60  55  84 W5        29.99R
NEW RICHMOND   CLEAR     58  57  97 CALM      30.00R
OSCEOLA        CLEAR     56  56 100 CALM      30.02R
$$

WIZ003>005-009-010-017-018-300700-
NORTH CENTRAL WISCONSIN

CITY           SKY/WX    TMP DP  RH WIND       PRES   REMARKS
MANITOWISH WTR NOT AVBL
ARBOR VITAE    CLEAR     53  52  94 CALM      29.96S
WOODRUFF       CLEAR     53  52  94 CALM      29.96S
RHINELANDER    CLEAR     53  51  93 W5        29.97S
6HR MIN TEMP:  51; 6HR MAX TEMP:  68;

EAGLE RIVER    FOG       51  51 100 CALM      29.96R VSB 1
LAND O LAKES   CLEAR     54  54 100 W5        29.96R
PHILLIPS       CLEAR     51  51 100 CALM      29.97S FOG
6HR MIN TEMP:  51; 6HR MAX TEMP:  69;

TOMAHAWK       CLEAR     50  49  96 CALM      29.98R FOG
MEDFORD        CLEAR     59  56  91 W3        29.98S
MERRILL        CLEAR    N/A N/A N/A CALM      29.98S
$$

WIZ029-030-035-036-043>047-300700-
CENTRAL WISCONSIN

CITY           SKY/WX    TMP DP  RH WIND       PRES   REMARKS
WAUSAU         PTCLDY    62  56  80 NW6       29.96S
6HR MIN TEMP:  60; 6HR MAX TEMP:  73;

MOSINEE        MOCLDY    59  57  94 W5        29.99S
MARSHFIELD     CLOUDY    63  56  78 N3        29.98R
6HR MIN TEMP:  60; 6HR MAX TEMP:  72;

STEVENS POINT  CLEAR     58  55  87 SW3       29.98S
WAUPACA        CLEAR     60  59  97 S3        29.97S
WAUTOMA        PTCLDY   N/A N/A N/A CALM      29.99S
WISC RAPIDS    CLOUDY    60  56  86 SW5       29.99S
6HR MIN TEMP:  56; 6HR MAX TEMP:  76;

CAMP DOUGLAS   NOT AVBL
$$

WIZ011>013-019>022-031-037>040-048>050-300700-
NORTHEAST WISCONSIN

CITY           SKY/WX    TMP DP  RH WIND       PRES   REMARKS
ANTIGO         CLEAR     56  55  95 CALM      29.98R
SHAWANO        PTCLDY    62  57  84 CALM      29.96R
OCONTO         MOCLDY   N/A N/A N/A CALM      29.94S
STURGEON BAY   NOT AVBL
GREEN BAY      CLEAR     63  57  81 W3        29.95S
6HR MIN TEMP:  63; 6HR MAX TEMP:  75;

MANITOWOC      NOT AVBL
APPLETON       CLEAR     61  52  72 SW5       29.96S
CLINTONVILLE   CLEAR     59  54  82 CALM      29.95S
OSHKOSH        CLEAR     65  56  72 SW3       29.97S
6HR MIN TEMP:  64; 6HR MAX TEMP:  76;

$$

WIZ032>034-041-042-053>061-300700-
SOUTHWEST WISCONSIN

CITY           SKY/WX    TMP DP  RH WIND       PRES   REMARKS
LA CROSSE      MOCLDY    65  61  87 S7        29.99R
6HR MIN TEMP:  64; 6HR MAX TEMP:  76;

SPARTA         PTCLDY    57  56  96 CALM      30.00R
VIROQUA        MOCLDY    64  57  77 SW5       30.02S
BOSCOBEL       CLEAR     60  59  96 CALM      30.01S FOG
6HR MIN TEMP:  59; 6HR MAX TEMP:  79;

PRAIRIE DU CHI PTCLDY    60  57  89 CALM      30.01R
PLATTEVILLE    PTCLDY    66  60  83 CALM      30.02R
$$

WIZ056-057-062-063-064-067-068-300700-
SOUTH CENTRAL WISCONSIN

CITY           SKY/WX    TMP DP  RH WIND       PRES   REMARKS
REEDSBURG      CLEAR     61  61 100 CALM      30.00S
BARABOO/DELLS  CLEAR     63  58  84 CALM      30.00S
LONE ROCK      NOT AVBL
MINERAL POINT  CLEAR     64  59  82 CALM      30.03R
MADISON        CLEAR     63  60  90 CALM      29.99S
6HR MIN TEMP:  61; 6HR MAX TEMP:  76; 6HR PCP:  0.21;

MIDDLETON      CLEAR     62  60  93 W3        30.01S
WATERTOWN      CLEAR     64  59  83 CALM      29.99S
MONROE         PTCLDY    66  55  68 W9        30.01S
JANESVILLE     CLEAR     63  59  88 CALM      30.00S
$$

WIZ051-052-058>065-066-070>072-300700-
SOUTHEAST WISCONSIN

CITY           SKY/WX    TMP DP  RH WIND       PRES   REMARKS
MILWAUKEE      MOCLDY    69  58  67 W6        29.98S
6HR MIN TEMP:  69; 6HR MAX TEMP:  78;

WAUKESHA       MOCLDY    64  54  68 W6        30.00S
MILWAUKEE/TIMM CLOUDY    68  54  60 W6        29.99S
RACINE         CLOUDY    68  58  70 SW6       30.00S
6HR MIN TEMP:  66; 6HR MAX TEMP:  78;

BURLINGTON     PTCLDY    63  59  88 CALM      30.00R
KENOSHA        CLOUDY    64  58  80 SW8       29.99S
6HR MIN TEMP:  61; 6HR MAX TEMP:  76;

FOND DU LAC    CLEAR     63  58  83 W6        29.98S
6HR MIN TEMP:  63; 6HR MAX TEMP:  76;

SHEBOYGAN      CLEAR     60  56  86 W5        29.97R
6HR MIN TEMP:  60; 6HR MAX TEMP:  75;

WEST BEND      MOCLDY    64  55  72 W3        29.99R
JUNEAU         CLEAR     63  58  83 W5        30.00S
$$

LSZ147-162-300700-
LAKE SUPERIOR

STATION/POSITION TIME  TEMP    WIND        PRES    WAVE
                       AIR SEA DIR/SP/G            HT/PER
                 (UTC) (F)     (DEG/KT/KT) (MB)    (FT/S)
W MID LAKE BUOY  0450   45 38  250/ 12/ 12 1012.1F   1/ 4
DEVILS ISLAND    0500   59     220/ 13/ 15 1012.4F
SAXON HARBOR     0540   54     200/  7/  8 1012.5S
$$

LMZ867-665-643>646-300700-
LAKE MICHIGAN

STATION/POSITION TIME  TEMP    WIND        PRES    WAVE
                       AIR SEA DIR/SP/G            HT/PER
                 (UTC) (F)     (DEG/KT/KT) (MB)    (FT/S)
CHAMBERS ISLAND  0500   63     220/  3/  5 1013.2
N MID LAKE BUOY  0450   54 47  250/  8/ 10 1012.4R   2/ 5
NORTHPORT PIER   0500   63     260/  4/  7 1012.9S
KEWAUNEE LAKESHO 0500   65     300/  3/  4 1013.4R
SHEBOYGAN LAKESH 0500   68     260/  7/  8 1014.6R
PORT WASHINGTON  0500   68     260/  5/  7 1015.2R
S MID LAKE BUOY  0450   57 51  230/  8/  8 1014.7R   1
KENOSHA   LAKESH 0500   71     260/  6/  9 1014.9F
$$

TC  - TEMPERATURE IN CELSIUS
VSB - VISIBILITY IN STATUTE MILES
WCI - WIND CHILL INDEX
HX  - HEAT INDEX





USA.gov is the U.S. government's official web portal to all federal, state and local government web resources and services.